Fort Myers, FL

12:22 PM EST on February 23, 2017 (GMT -0500)
Page

Weather History for KFMY - February, 2012

Change the Weather History Date:

Sunday, February 19, 2012

  Actual Average Record
Temperature  
Mean Temperature 75 °F 67 °F  
Max Temperature 82 °F 78 °F 89 °F (1944)
Min Temperature 68 °F 56 °F 34 °F (1958)
Degree Days  
Heating Degree Days 0 2  
Month to date heating degree days 23 44  
Since 1 July heating degree days 126 245  
Cooling Degree Days 10 4  
Month to date cooling degree days 125 66  
Year to date cooling degree days 216 149  
Growing Degree Days 25 (Base 50)    
Moisture  
Dew Point 67 °F    
Average Humidity 79    
Maximum Humidity 90    
Minimum Humidity 69    
Precipitation  
Precipitation T in 0.07 in 1.78 in (1913)
Month to date precipitation 0.27 1.41  
Year to date precipitation 0.42 3.35  
Sea Level Pressure  
Sea Level Pressure 29.92 in    
Wind  
Wind Speed 11 mph (WSW)    
Max Wind Speed 22 mph    
Max Gust Speed 33 mph    
Visibility 10 miles    
Events      
T = Trace of Precipitation, MM = Missing Value Source: NWS Daily Summary

Daily Weather History Graph

Daily Weather History Graph

Search for Another Location

Airport or City:

Trip Planner

Search our weather history database for the weather conditions in past years. The results will help you decide how hot, cold, wet, or windy it might be!

Date:

Astronomy

Feb. 19, 2012 Rise Set
Actual Time 7:00 AM EST 6:22 PM EST
Civil Twilight 6:37 AM EST 6:45 PM EST
Nautical Twilight 6:10 AM EST 7:12 PM EST
Astronomical Twilight 5:43 AM EST 7:39 PM EST
Moon 5:11 AM EST (2/19) 4:29 PM EST (2/19)
Length of Visible Light 12h 08m
Length of Day
11h 21m
Waning Crescent, 5% of the Moon is Illuminated
Feb 19
Waning Crescent
Feb 21
New
Feb 29
First Quarter
Mar 8
Full
Mar 14
Last Quarter

Hourly Weather History & Observations

Time (EST) Temp. Heat Index Dew Point Humidity Pressure Visibility Wind Dir Wind Speed Gust Speed Precip Events Conditions
12:53 AM 70.0 °F - 66.0 °F 87% 29.93 in 10.0 mi South 4.6 mph - N/A   Clear
1:53 AM 70.0 °F - 66.0 °F 87% 29.92 in 10.0 mi South 3.5 mph - N/A   Clear
2:53 AM 70.0 °F - 66.0 °F 87% 29.90 in 10.0 mi South 4.6 mph - N/A   Clear
3:34 AM 69.8 °F - 66.2 °F 88% 29.90 in 10.0 mi Calm Calm - N/A   Mostly Cloudy
3:53 AM 70.0 °F - 66.0 °F 87% 29.91 in 10.0 mi SSE 3.5 mph - N/A   Overcast
4:19 AM 71.6 °F - 69.8 °F 94% 29.91 in 10.0 mi SSW 5.8 mph - N/A   Mostly Cloudy
4:53 AM 73.0 °F - 69.1 °F 87% 29.92 in 10.0 mi SSW 8.1 mph - N/A   Mostly Cloudy
5:53 AM 73.0 °F - 69.1 °F 87% 29.91 in 10.0 mi SSW 8.1 mph - N/A   Partly Cloudy
6:53 AM 73.0 °F - 69.1 °F 87% 29.92 in 10.0 mi SSW 8.1 mph - N/A   Clear
7:53 AM 73.0 °F - 70.0 °F 90% 29.92 in 10.0 mi South 8.1 mph - N/A   Scattered Clouds
8:14 AM 75.2 °F - 69.8 °F 83% 29.92 in 10.0 mi SSW 6.9 mph - N/A   Partly Cloudy
8:36 AM 75.2 °F - 69.8 °F 83% 29.92 in 10.0 mi SSW 9.2 mph - N/A   Scattered Clouds
8:53 AM 75.9 °F - 71.1 °F 85% 29.93 in 10.0 mi SSW 10.4 mph - N/A   Scattered Clouds
9:53 AM 79.0 °F - 70.0 °F 74% 29.94 in 10.0 mi SW 12.7 mph 23.0 mph N/A   Scattered Clouds
10:53 AM 80.1 °F 83.2 °F 70.0 °F 71% 29.95 in 10.0 mi SSW 17.3 mph 28.8 mph N/A   Scattered Clouds
11:16 AM 80.6 °F 83.9 °F 69.8 °F 70% 29.94 in 10.0 mi SW 17.3 mph 25.3 mph N/A   Mostly Cloudy
11:26 AM 80.6 °F 83.9 °F 69.8 °F 70% 29.93 in 10.0 mi SSW 13.8 mph 21.9 mph N/A   Mostly Cloudy
11:39 AM 80.6 °F 83.9 °F 69.8 °F 70% 29.93 in 10.0 mi SW 15.0 mph 25.3 mph N/A   Mostly Cloudy
11:53 AM 81.0 °F 84.4 °F 70.0 °F 69% 29.94 in 10.0 mi SW 15.0 mph 25.3 mph N/A   Mostly Cloudy
12:53 PM 81.0 °F 84.4 °F 70.0 °F 69% 29.92 in 10.0 mi SW 13.8 mph 27.6 mph N/A   Mostly Cloudy
1:53 PM 81.0 °F 84.9 °F 71.1 °F 72% 29.90 in 10.0 mi SW 15.0 mph 26.5 mph N/A   Mostly Cloudy
2:34 PM 78.8 °F - 71.6 °F 78% 29.86 in 10.0 mi SW 15.0 mph 27.6 mph N/A   Overcast
2:53 PM 79.0 °F - 71.1 °F 77% 29.87 in 10.0 mi SW 17.3 mph 25.3 mph N/A   Overcast
3:53 PM 78.1 °F - 71.1 °F 79% 29.87 in 10.0 mi SW 16.1 mph 23.0 mph N/A   Overcast
4:53 PM 77.0 °F - 71.1 °F 82% 29.88 in 10.0 mi SW 15.0 mph 23.0 mph N/A   Overcast
5:53 PM 75.0 °F - 70.0 °F 84% 29.89 in 8.0 mi WNW 18.4 mph 24.2 mph 0.00 in   Overcast
6:22 PM 73.4 °F - 68.0 °F 83% 29.89 in 8.0 mi WNW 15.0 mph - N/A   Overcast
6:53 PM 73.0 °F - 66.0 °F 79% 29.91 in 10.0 mi WNW 10.4 mph - N/A   Overcast
7:06 PM 73.4 °F - 66.2 °F 78% 29.91 in 10.0 mi WNW 13.8 mph - N/A   Overcast
7:39 PM 71.6 °F - 64.4 °F 78% 29.91 in 10.0 mi WNW 11.5 mph - N/A   Overcast
7:53 PM 71.1 °F - 64.9 °F 81% 29.92 in 10.0 mi WNW 13.8 mph - N/A   Overcast
8:22 PM 71.6 °F - 62.6 °F 73% 29.92 in 10.0 mi WNW 13.8 mph - N/A   Overcast
8:42 PM 71.6 °F - 62.6 °F 73% 29.93 in 10.0 mi WNW 10.4 mph - N/A   Overcast
8:53 PM 70.0 °F - 63.0 °F 78% 29.94 in 10.0 mi WNW 10.4 mph - N/A   Overcast
9:19 PM 69.8 °F - 62.6 °F 78% 29.94 in 10.0 mi WNW 10.4 mph - N/A   Scattered Clouds
9:53 PM 69.1 °F - 61.0 °F 75% 29.96 in 10.0 mi WNW 11.5 mph - N/A   Clear
10:28 PM 69.8 °F - 60.8 °F 73% 29.96 in 10.0 mi WNW 11.5 mph - N/A   Mostly Cloudy
10:53 PM 69.1 °F - 60.1 °F 73% 29.97 in 10.0 mi WNW 11.5 mph - N/A   Overcast
11:03 PM 69.8 °F - 60.8 °F 73% 29.96 in 10.0 mi WNW 12.7 mph - N/A   Mostly Cloudy
11:46 PM 69.8 °F - 59.0 °F 68% 29.97 in 10.0 mi WNW 13.8 mph 19.6 mph N/A   Mostly Cloudy
11:53 PM 68.0 °F - 60.1 °F 76% 29.98 in 10.0 mi WNW 9.2 mph 19.6 mph N/A   Mostly Cloudy